Location: ?astrovice
(49.6513°N, 14.9287°E)
Time: 05:04:16
(UTC+00:00)

BEESAT - Pass Details

Date: 28 October 2021
Orbit: 700 x 707 km, 98.6° (Epoch: 06 December)

Event Time Altitude Azimuth Distance (km) Brightness Sun altitude
Rises 04:15:47 0° 122° (ESE) 3,081 ? -14.6°
Reaches altitude 10° 04:18:30 10° 106° (ESE) 2,167 ? -14.1°
Maximum altitude 04:21:58 21° 59° (ENE) 1,569 ? -13.6°
Drops below altitude 10° 04:25:28 10° 11° (NNE) 2,178 ? -13.0°
Sets 04:28:11 0° 356° (N) 3,101 ? -12.6°
